カタログに戻る

STARLINK-3046

運用中通信VLEO
NORAD 49169·PAYLOAD·🇺🇸 United States

打ち上げ Sep 14, 2021 から Vandenberg Space Force Base

Loading…

次のパス (今後24時間)

TLE

最新Source: CelesTrak SupGP

元期: Sep 14, 2026, 14:09 UTC

1 49169C 21082AR  26257.59006944  .00066367  00000+0  55650-2 0  2578
2 49169  70.0011 158.1808 0002706 270.9289 223.5378 14.98276285    16

AllMySatでSTARLINK-3046をリアルタイム追跡

Download on the App Store